Date,TemperatureHighF,TemperatureAvgF,TemperatureLowF,DewpointHighF,DewpointAvgF,DewpointLowF,HumidityHigh,HumidityAvg,HumidityLow,PressureMaxIn,PressureMinIn,WindSpeedMaxMPH,WindSpeedAvgMPH,GustSpeedMaxMPH,PrecipitationSumIn
2013-2-1,75,64,56,100,92,83,0,0,100,30.50,30.37,16,1,16,0.00
2013-2-2,79,67,56,100,94,83,0,0,100,30.38,30.25,13,2,13,0.00
2013-2-3,78,68,60,100,96,87,0,0,100,30.41,30.20,15,3,15,0.01
2013-2-4,76,71,63,100,98,91,0,0,100,30.20,29.96,13,3,13,0.01
2013-2-5,84,76,71,100,100,100,0,0,100,30.11,29.98,14,2,14,1.02
2013-2-6,73,71,69,100,100,98,0,0,100,30.16,29.98,27,6,27,0.53
2013-2-7,76,70,67,100,98,96,0,0,100,30.09,29.98,11,1,11,0.00
2013-2-8,75,69,62,100,97,90,0,0,100,30.26,30.08,20,7,20,0.00
2013-2-9,75,67,58,100,95,85,0,0,100,30.26,30.03,22,6,22,0.00
2013-2-10,83,75,70,100,100,99,0,0,100,30.06,29.88,29,6,29,0.11
2013-2-11,72,64,61,100,93,89,0,0,100,30.20,30.05,22,8,22,0.74
2013-2-12,78,67,63,100,95,91,0,0,100,30.10,29.85,20,5,20,0.13
2013-2-13,67,61,54,95,89,81,0,0,100,30.22,30.04,22,7,22,0.04
2013-2-14,72,59,48,100,87,74,0,0,100,30.26,30.14,10,1,10,0.00
2013-2-15,74,61,52,100,89,78,0,0,100,30.41,30.19,26,6,26,0.01
2013-2-16,66,56,47,95,84,74,0,0,100,30.53,30.34,21,7,21,0.00
2013-2-17,73,60,49,100,87,75,0,0,100,30.40,30.26,23,3,23,0.00
2013-2-18,74,71,61,100,99,89,0,0,100,30.16,29.98,32,9,32,0.62
2013-2-19,72,63,55,100,91,83,0,0,100,30.35,30.15,22,7,22,0.02
2013-2-20,63,60,54,92,88,82,0,0,100,30.29,29.99,26,10,26,0.00
2013-2-21,79,71,63,100,98,91,0,0,100,29.99,29.77,26,8,26,0.03
2013-2-22,71,65,60,100,94,87,0,0,100,30.08,29.94,17,6,17,0.00
2013-2-23,73,62,54,100,90,81,0,0,100,30.10,29.97,16,4,16,0.00
2013-2-24,71,63,51,100,91,78,0,0,100,30.06,29.79,16,4,16,0.05
2013-2-25,79,69,55,100,96,82,0,0,100,29.82,29.55,30,7,30,0.49
2013-2-26,70,59,50,99,86,76,0,0,100,30.05,29.82,28,6,28,0.00
2013-2-27,78,64,53,100,91,80,0,0,100,30.24,30.03,29,6,29,0.00
2013-2-28,61,54,48,89,81,74,0,0,100,30.37,30.22,22,8,22,0.00